Highgate, VT

3:31 AM EST on January 20, 2018 (GMT -0500)
Franklin County State

Weather History for KFSO - November, 2012

Change the Weather History Date:

Wednesday, November 7, 2012

  Actual Average (KPBG) Record (KPBG)
Temperature  
Mean Temperature 28 °F -  
Max Temperature 36 °F 47 °F 71 °F (1948)
Min Temperature 19 °F 33 °F 18 °F (2012)
Degree Days  
Heating Degree Days 38    
Moisture  
Dew Point 19 °F    
Average Humidity 67    
Maximum Humidity 86    
Minimum Humidity 47    
Precipitation  
Precipitation 0.00 in - - ()
Sea Level Pressure  
Sea Level Pressure 30.14 in    
Wind  
Wind Speed 6 mph (NNE)    
Max Wind Speed 12 mph    
Max Gust Speed 20 mph    
Visibility 10 miles    
Events      
Averages and records for this station are not official NWS values.
T = Trace of Precipitation, MM = Missing Value Source: NWS Daily Summary

Daily Weather History Graph

Daily Weather History Graph

Search for Another Location

Airport or City:

Trip Planner

Search our weather history database for the weather conditions in past years. The results will help you decide how hot, cold, wet, or windy it might be!

Date:

Astronomy

Nov. 07, 2012 Rise Set
Actual Time 6:39 AM EST 4:32 PM EST
Civil Twilight 6:08 AM EST 5:03 PM EST
Nautical Twilight 5:33 AM EST 5:38 PM EST
Astronomical Twilight 4:59 AM EST 6:12 PM EST
Moon No Moon Rise 12:56 PM EST (11/7)
Length of Visible Light 10h 54m
Length of Day
9h 52m
Last Quarter, 43% of the Moon is Illuminated
Nov 7
Last Quarter
Nov 13
New
Nov 20
First Quarter
Nov 28
Full
Dec 6
Last Quarter

Hourly Weather History & Observations

Time (EST) Temp. Windchill Dew Point Humidity Pressure Visibility Wind Dir Wind Speed Gust Speed Precip Events Conditions
12:15 AM 22.1 °F 15.9 °F 17.4 °F 82% 30.20 in 10.0 mi East 4.6 mph - N/A   Clear
12:35 AM 21.7 °F 17.0 °F 17.2 °F 83% 30.20 in 10.0 mi ESE 3.5 mph - N/A   Clear
12:55 AM 21.9 °F 17.2 °F 17.8 °F 84% 30.20 in 10.0 mi ESE 3.5 mph - N/A   Clear
1:15 AM 22.1 °F 14.7 °F 17.8 °F 83% 30.20 in 10.0 mi ESE 5.8 mph - N/A   Clear
1:35 AM 22.1 °F 15.9 °F 18.1 °F 85% 30.20 in 10.0 mi East 4.6 mph - N/A   Clear
1:55 AM 21.6 °F 15.3 °F 17.4 °F 84% 30.21 in 10.0 mi ESE 4.6 mph - N/A   Clear
2:15 AM 21.9 °F 15.7 °F 18.1 °F 85% 30.20 in 10.0 mi East 4.6 mph - N/A   Clear
2:35 AM 19.6 °F 10.6 °F 15.8 °F 85% 30.22 in 10.0 mi SE 6.9 mph - N/A   Clear
3:15 AM 22.1 °F 17.4 °F 17.6 °F 83% 30.22 in 10.0 mi East 3.5 mph - N/A   Clear
3:35 AM 22.1 °F 14.7 °F 17.2 °F 82% 30.22 in 10.0 mi East 5.8 mph - N/A   Clear
3:55 AM 21.6 °F 14.0 °F 16.9 °F 82% 30.22 in 10.0 mi East 5.8 mph - N/A   Clear
4:15 AM 21.0 °F 16.2 °F 16.2 °F 81% 30.22 in 10.0 mi East 3.5 mph - N/A   Clear
4:35 AM 19.9 °F 13.4 °F 15.1 °F 81% 30.22 in 10.0 mi ESE 4.6 mph - N/A   Clear
5:15 AM 19.4 °F 12.8 °F 15.8 °F 86% 30.20 in 10.0 mi East 4.6 mph - N/A   Clear
5:35 AM 19.2 °F 14.1 °F 15.6 °F 86% 30.20 in 10.0 mi East 3.5 mph - N/A   Clear
8:35 AM 27.1 °F - 20.3 °F 75% 30.21 in 10.0 mi Calm Calm - N/A   Clear
8:55 AM 27.5 °F 23.6 °F 19.4 °F 72% 30.20 in 10.0 mi NE 3.5 mph - N/A   Clear
9:15 AM 29.7 °F - 20.8 °F 70% 30.20 in 10.0 mi Calm Calm - N/A   Clear
9:35 AM 32.0 °F 28.7 °F 20.8 °F 63% 30.20 in 10.0 mi NE 3.5 mph - N/A   Clear
9:55 AM 32.0 °F 28.7 °F 21.9 °F 66% 30.20 in 10.0 mi North 3.5 mph - N/A   Clear
10:15 AM 32.0 °F 27.5 °F 21.7 °F 66% 30.20 in 10.0 mi North 4.6 mph - N/A   Clear
10:35 AM 32.0 °F 26.4 °F 20.7 °F 63% 30.20 in 10.0 mi North 5.8 mph - N/A   Clear
10:55 AM 32.0 °F 26.4 °F 20.1 °F 62% 30.20 in 10.0 mi North 5.8 mph - N/A   Clear
11:15 AM 32.2 °F 28.9 °F 19.9 °F 61% 30.19 in 10.0 mi NW 3.5 mph - N/A   Clear
11:35 AM 32.7 °F 27.3 °F 19.2 °F 58% 30.18 in 10.0 mi NNE 5.8 mph - N/A   Clear
11:55 AM 34.3 °F 27.7 °F 19.2 °F 54% 30.16 in 10.0 mi NNE 8.1 mph - N/A   Clear
12:15 PM 34.3 °F 28.4 °F 18.3 °F 52% 30.16 in 10.0 mi NNE 6.9 mph - N/A   Clear
12:35 PM 34.7 °F 30.6 °F 17.4 °F 49% 30.15 in 10.0 mi NNE 4.6 mph - N/A   Clear
1:15 PM 36.7 °F 32.0 °F 18.1 °F 47% 30.14 in 10.0 mi North 5.8 mph - N/A   Clear
1:35 PM 36.1 °F 32.3 °F 19.4 °F 51% 30.13 in 10.0 mi North 4.6 mph - N/A   Clear
1:55 PM 36.5 °F 31.0 °F 18.7 °F 49% 30.12 in 10.0 mi NNE 6.9 mph - N/A   Clear
2:15 PM 36.9 °F 30.1 °F 18.3 °F 47% 30.12 in 10.0 mi NNE 9.2 mph - N/A   Clear
2:35 PM 35.1 °F 27.4 °F 19.8 °F 54% 30.11 in 10.0 mi North 10.4 mph - N/A   Clear
2:55 PM 34.5 °F 26.7 °F 19.6 °F 54% 30.11 in 10.0 mi North 10.4 mph 16.1 mph N/A   Clear
3:15 PM 34.3 °F 28.4 °F 20.5 °F 57% 30.11 in 10.0 mi North 6.9 mph - N/A   Clear
3:35 PM 34.3 °F 26.5 °F 20.5 °F 57% 30.11 in 10.0 mi North 10.4 mph 16.1 mph N/A   Clear
3:55 PM 34.2 °F 26.8 °F 21.2 °F 59% 30.10 in 10.0 mi North 9.2 mph - N/A   Clear
4:15 PM 32.9 °F 24.1 °F 20.7 °F 61% 30.10 in 10.0 mi North 11.5 mph 19.6 mph N/A   Clear
4:35 PM 32.0 °F 24.8 °F 19.8 °F 61% 30.10 in 10.0 mi North 8.1 mph 16.1 mph N/A   Clear
4:55 PM 32.0 °F 24.2 °F 20.3 °F 62% 30.09 in 10.0 mi North 9.2 mph 16.1 mph N/A   Clear
5:15 PM 32.0 °F 24.2 °F 20.8 °F 63% 30.09 in 10.0 mi North 9.2 mph 17.3 mph N/A   Clear
5:35 PM 32.0 °F 23.6 °F 21.2 °F 64% 30.10 in 10.0 mi North 10.4 mph - N/A   Clear
5:55 PM 32.0 °F 24.8 °F 21.2 °F 64% 30.10 in 10.0 mi North 8.1 mph - N/A   Clear
6:15 PM 32.0 °F 25.6 °F 21.2 °F 64% 30.10 in 10.0 mi North 6.9 mph - N/A   Clear
6:35 PM 32.0 °F 25.6 °F 21.6 °F 65% 30.11 in 10.0 mi North 6.9 mph - N/A   Clear
6:55 PM 31.3 °F 23.3 °F 21.0 °F 66% 30.10 in 10.0 mi North 9.2 mph - N/A   Clear
7:15 PM 29.7 °F 22.8 °F 20.1 °F 68% 30.10 in 10.0 mi North 6.9 mph - N/A   Clear
7:35 PM 29.7 °F 23.7 °F 19.9 °F 67% 30.10 in 10.0 mi North 5.8 mph - N/A   Clear
7:55 PM 29.7 °F 22.0 °F 19.9 °F 67% 30.10 in 10.0 mi North 8.1 mph - N/A   Clear
8:15 PM 29.7 °F 22.0 °F 20.1 °F 68% 30.09 in 10.0 mi North 8.1 mph - N/A   Clear
8:35 PM 29.7 °F 22.8 °F 20.3 °F 68% 30.09 in 10.0 mi North 6.9 mph - N/A   Clear
8:55 PM 29.7 °F 22.8 °F 19.9 °F 67% 30.08 in 10.0 mi North 6.9 mph - N/A   Clear
9:15 PM 29.7 °F 22.8 °F 19.9 °F 67% 30.08 in 10.0 mi North 6.9 mph - N/A   Clear
9:35 PM 29.7 °F 22.8 °F 19.9 °F 67% 30.08 in 10.0 mi North 6.9 mph - N/A   Clear
9:55 PM 29.7 °F 22.8 °F 19.9 °F 67% 30.07 in 10.0 mi North 6.9 mph - N/A   Clear
10:15 PM 29.5 °F 23.4 °F 19.9 °F 68% 30.07 in 10.0 mi North 5.8 mph - N/A   Clear
10:35 PM 29.7 °F 21.3 °F 19.4 °F 66% 30.06 in 10.0 mi North 9.2 mph - N/A   Clear
11:15 PM 29.7 °F 20.1 °F 19.4 °F 66% 30.05 in 10.0 mi NNE 11.5 mph - N/A   Clear
11:35 PM 29.3 °F 20.2 °F 19.2 °F 66% 30.05 in 10.0 mi North 10.4 mph 17.3 mph N/A   Clear